User: anonymous   Login
Location: Ash Swamp
(41.5170°N, 74.6157°W)
Time: 12:43:00
(UTC+00:00)
Language:

CZ-4B DEB - Orbit

View from above orbital plane
View from above orbital plane
View from above satellite
View from above satellite

Ground track
Ground track

The orbit data is extracted from the following two-line orbital elements,

1 37182U 10051D   21126.81195261  .00013591  00000-0  24352-3 0  9991
2 37182  97.2960 200.8991 0002796 196.1919 163.9244 15.50066629586463
Epoch (UTC): 06 May 2021 19:29:12
Eccentricity: 0.0002796
inclination: 97.2960°
perigee height: 414 km
apogee height: 418 km
right ascension of ascending node: 200.8991°
argument of perigee: 196.1919°
revolutions per day: 15.50066629
mean anomaly at epoch: 163.9244°
orbit number at epoch: 58646

The dashed part of the orbit path shows where the satellite is in the earth's shadow,  

DLR